Regional Weather Roundup
Issued by NWS

Home | Current Version | Previous Version | Graphics & Text | Print | Product List | Glossary On
Versions: 1 2 3 4 5 6 7 8 9 10 11 12 13 14 15 16 17 18 19 20 21 22 23 24 25 26 27 28 29 30 31 32 33 34 35 36 37 38 39 40 41 42 43 44 45 46 47 48 49 50
000
ASUS43 KIND 100659
RWRIN

WEATHER ROUNDUP FOR INDIANA
NATIONAL WEATHER SERVICE INDIANAPOLIS IN
200 AM EST SUN DEC 10 2017

NOTE: "FAIR" INDICATES FEW OR NO CLOUDS BELOW 12,000 FEET WITH NO
SIGNIFICANT WEATHER AND/OR OBSTRUCTIONS TO VISIBILITY.

* - STATION DOES NOT REPORT WEATHER SUCH AS PRECIPITATION OR FOG.

+ - STATION NOT QUALITY CONTROLLED BY THE NATIONAL WEATHER SERVICE.
    USE DATA WITH CAUTION...ESPECIALLY DEWPOINT AND RELATIVE
    HUMIDITY OBSERVATIONS.

INZ001>003-010>013-019-020-100800-
NORTHWEST INDIANA

CITY           SKY/WX    TMP DP  RH WIND       PRES   REMARKS
KNOX *+        CLEAR     18  12  79 W8        30.05F WCI   7
LA PORTE +     PTCLDY    18  12  76 SW8       30.03F WCI   8
MONTICELLO +   PTCLDY    19  13  78 SW6       30.07F WCI  10

$$

LMZ046-743>745-100800-
SOUTHERN LAKE MICHIGAN

STATION/POSITION TIME  TEMP    WIND        PRES    WAVE
                       AIR SEA DIR/SP/G            HT
                 (UTC) (F)     (DEG/KT/KT) (MB)    (FT)
BURNS HARBOR     0640   24     220/  9/ 16 1017.9F
MICHIGAN CITY    0630   26     260/ 13/ 15   N/A

$$

INZ004-005-014>016-021>024-100800-
NORTH CENTRAL INDIANA

CITY           SKY/WX    TMP DP  RH WIND       PRES   REMARKS
GOSHEN         MOCLDY    24  19  81 W10       30.00S WCI  14
PERU/GRISSOM   PTCLDY    18  13  81 W8        30.05S WCI   7
SOUTH BEND     CLOUDY    25  20  81 W10       30.01F WCI  15
WARSAW +       MOCLDY    23  19  86 W8        30.02S WCI  14

$$

INZ006>009-017-018-025>027-100800-
NORTHEAST INDIANA

CITY           SKY/WX    TMP DP  RH WIND       PRES   REMARKS
AUBURN +       CLOUDY    28  25  86 W9        30.00R WCI  20
FORT WAYNE     FLURRIES  26  21  81 W17       30.02R WCI  13
KENDALLVILLE + CLOUDY    27  24  91 W8        29.98S WCI  18

$$

INZ028-029-035-036-043>045-051>053-100800-
WEST CENTRAL INDIANA

CITY           SKY/WX    TMP DP  RH WIND       PRES   REMARKS
GREENCASTLE +  CLEAR     21  14  73 CALM      30.12S
LAFAYETTE      PTCLDY    18  14  84 SW6       30.10F WCI  10
TERRE HAUTE    CLEAR     21  14  74 SW5       30.15S WCI  15

$$

INZ030>032-037>040-046>048-054>057-064-065-100800-
CENTRAL INDIANA

CITY           SKY/WX    TMP DP  RH WIND       PRES   REMARKS
FRANKFORT +    CLEAR     20  16  83 W7        30.09F WCI  11
GREENWOOD *+   PTCLDY    25  18  73 W6        30.10S WCI  18
INDIANAPOLIS   CLEAR     20  14  77 W9        30.10S WCI   9
-EAGLE CREEK   CLEAR     22  14  71 W8        30.09S WCI  12
KOKOMO +       CLEAR     19  14  81 W9        30.06F WCI   8
MT COMFORT *+  CLEAR     19  18  93 W10       30.08S WCI   8
SHELBYVILLE    CLEAR     23  14  68 W12       30.09S WCI  12
ZIONSVILLE +   PTCLDY    19  14  81 W8        30.08S WCI   9

$$

INZ033-034-041-042-049-050-058-059-100800-
EAST CENTRAL INDIANA

CITY           SKY/WX    TMP DP  RH WIND       PRES   REMARKS
MUNCIE         CLOUDY    25  16  68 W12       30.06R WCI  14
RICHMOND +     CLOUDY    23  19  86 W10       30.05R WCI  12

$$

INZ060-061-067>069-081>083-085>088-100800-
SOUTHWEST INDIANA

CITY           SKY/WX    TMP DP  RH WIND       PRES   REMARKS
EVANSVILLE     CLEAR     24  16  71 W5        30.21S WCI  18
HUNTINGBURG +  CLEAR     22  16  78 SW5       30.19R WCI  16

$$

INZ062-063-066-070>080-084-089>092-100800-
SOUTH CENTRAL AND SOUTHEAST INDIANA

CITY           SKY/WX    TMP DP  RH WIND       PRES   REMARKS
BLOOMINGTON    CLEAR     21  13  71 W5        30.12S WCI  15
SEYMOUR +      PTCLDY    23  14  68 W3        30.14R

$$





USA.gov is the U.S. government's official web portal to all federal, state and local government web resources and services.